SDT,��Ԑ��ʗ��i��Gy/h�j,�����ʗ��i��Gy/h),�~�J��i�����j,���J��,�����l�i��Gy/h�j,����l�i��Gy/h�j,�ߋ��̍ő�l�i��Gy/h�j
20110311010000,0.044,0.074,0.0,0,0.039,0.06,0.105
20110311020000,0.043,0.074,0.0,0,,,
20110311030000,0.043,0.074,0.0,0,,,
20110311040000,0.043,0.074,0.0,0,,,
20110311050000,0.043,0.074,0.0,0,,,
20110311060000,0.043,0.074,0.0,0,,,
20110311070000,0.043,0.074,0.0,0,,,
20110311080000,0.043,0.074,0.0,0,,,
20110311090000,0.043,0.074,0.0,0,,,
20110311100000,0.043,0.074,0.0,0,,,
20110311110000,0.043,0.074,0.0,0,,,
20110311120000,0.043,0.074,0.0,0,,,
20110311130000,0.043,0.074,0.0,0,,,
20110311140000,0.043,0.074,0.0,0,,,
20110311150000,0.043,0.076,0.0,0,,,
20110311160000,0.044,0.075,0.0,1,,,
20110311170000,0.045,0.077,0.0,0,,,
20110311180000,0.044,0.075,0.0,,,,
20110311190000,0.043,0.074,0.0,,,,
20110311200000,0.043,0.073,0.0,,,,
20110311210000,0.042,0.073,0.0,,,,
20110311220000,0.042,0.073,0.0,,,,
20110311230000,0.042,0.074,0.0,,,,
20110312000000,0.042,0.074,0.0,,,,
20110312010000,0.043,0.073,0.0,,,,
20110312020000,0.044,0.074,0.0,,,,
20110312030000,0.043,0.074,0.0,,,,
20110312040000,0.044,0.074,0.0,,,,
20110312050000,0.044,0.074,0.0,,,,
20110312060000,0.049,0.078,0.0,,,,
20110312070000,0.045,0.075,0.0,,,,
20110312080000,0.044,0.075,0.0,,,,
20110312090000,0.049,0.078,0.0,,,,
20110312100000,21.409,32.472,0.0,,,,
20110312110000,1.841,2.454,0.0,,,,
20110312120000,1.026,0.841,0.0,,,,
20110312130000,0.865,0.707,0.0,,,,
20110312140000,6.658,7.887,0.0,,,,
20110312150000,0.815,0.76,1.0,,,,
20110312160000,0.681,0.554,0.0,,,,
20110312170000,0.595,0.484,0.0,,,,
20110312180000,0.551,0.449,0.0,,,,
20110312190000,0.635,0.52,0.0,,,,
20110312200000,0.567,0.477,0.0,,,,
20110312210000,0.489,0.411,0.0,,,,
20110312220000,0.433,0.365,0.0,,,,
20110312230000,0.398,0.333,0.0,,,,
20110313000000,0.38,0.319,0.0,,,,
20110313010000,0.368,0.311,0.0,,,,
20110313020000,0.357,0.302,0.0,,,,
20110313030000,0.347,0.295,0.0,,,,
20110313040000,0.337,0.288,0.0,,,,
20110313050000,0.33,0.282,0.0,,,,
20110313060000,0.325,0.279,0.0,,,,
20110313070000,0.322,0.277,0.0,,,,
20110313080000,0.34,0.292,0.0,,,,
20110313090000,2.603,2.457,0.0,,,,
20110313100000,15.237,25.667,0.0,,,,
20110313110000,1.606,1.281,0.0,,,,
20110313120000,1.299,1.026,0.0,,,,
20110313130000,1.092,0.857,0.0,,,,
20110313140000,0.948,0.743,0.0,,,,
20110313150000,0.845,0.662,0.0,,,,
20110313160000,0.769,0.604,0.0,,,,
20110313170000,0.711,0.56,0.0,,,,
20110313180000,3.187,3.268,0.0,,,,
20110313190000,1.233,1.08,0.0,,,,
20110313200000,0.756,0.638,0.0,,,,
20110313210000,0.628,0.509,0.0,,,,
20110313220000,0.578,0.46,0.0,,,,
20110313230000,0.558,0.443,0.0,,,,
20110314000000,0.543,0.432,0.0,,,,
20110314010000,0.53,0.421,0.0,,,,
20110314020000,0.519,0.413,0.0,,,,
20110314030000,0.51,0.405,0.0,,,,
20110314040000,0.5,0.399,0.0,,,,
20110314050000,0.493,0.393,0.0,,,,
20110314060000,0.485,0.388,0.0,,,,
20110314070000,0.479,0.382,0.0,,,,
20110314080000,0.473,0.378,0.0,,,,
20110314090000,0.467,0.375,0.0,,,,
20110314100000,0.459,0.368,0.0,,,,
20110314110000,0.451,0.362,0.0,,,,
20110314120000,0.445,0.359,0.0,,,,
20110314130000,0.437,0.353,0.0,,,,
20110314140000,0.43,0.349,0.0,,,,
20110314150000,0.424,0.345,0.0,,,,
20110314160000,0.419,0.341,0.0,,,,
20110314170000,0.413,0.336,0.0,,,,
20110314180000,0.408,0.332,0.0,,,,
20110314190000,0.406,0.328,0.0,,,,
20110314200000,0.402,0.325,0.0,,,,
20110314210000,0.479,0.386,0.0,,,,
20110314220000,0.438,0.361,0.0,,,,
20110314230000,0.456,0.371,0.0,,,,
20110315000000,0.453,0.367,0.0,,,,
20110315010000,0.441,0.358,0.0,,,,
20110315020000,0.437,0.354,0.0,,,,
20110315030000,0.44,0.359,0.0,,,,
20110315040000,0.45,0.367,0.0,,,,
20110315050000,0.43,0.351,0.0,,,,
20110315060000,0.427,0.348,0.0,,,,
20110315070000,0.438,0.357,0.0,,,,
20110315080000,0.426,0.349,0.0,,,,
20110315090000,0.415,0.338,0.0,,,,
20110315100000,0.415,0.337,0.0,,,,
20110315110000,0.417,0.337,0.0,,,,
20110315120000,0.822,0.496,0.0,,,,
20110315130000,125.794,231.977,0.0,,,,
20110315140000,49.556,47.809,0.0,,,,
20110315150000,43.527,41.644,0.0,,,,
20110315160000,37.823,36.298,0.0,,,,
20110315170000,28.231,24.322,0.0,,,,
20110315180000,24.693,21.244,0.0,,,,
20110315190000,158.084,342.818,0.0,,,,
20110315200000,61.05,72.127,0.0,,,,
20110315210000,66.142,87.6,0.0,,,,
20110315220000,60.062,71.938,0.0,,,,
20110315230000,253.072,694.589,0.0,,,,
20110316000000,227.57,1018.174,0.0,,,,
20110316010000,252.479,769.517,0.0,,,,
20110316020000,265.041,651.923,0.0,,,,
20110316030000,268.655,586.468,0.0,,,,
20110316040000,262.08,536.74,0.0,,,,
20110316050000,248.142,504.897,0.0,,,,
20110316060000,243.122,491.246,0.0,,,,
20110316070000,239.295,480.098,0.0,,,,
20110316080000,236.952,473.758,0.0,,,,
20110316090000,234.808,467.523,0.0,,,,
20110316100000,232.973,462.16,0.0,,,,
20110316110000,231.219,456.804,0.0,,,,
20110316120000,229.351,450.748,0.0,,,,
20110316130000,225.221,438.372,0.0,,,,
20110316140000,217.258,413.822,0.0,,,,
20110316150000,218.065,416.957,0.0,,,,
20110316160000,218.274,418.604,0.0,,,,
20110316170000,218.074,418.798,0.0,,,,
20110316180000,217.748,418.237,0.0,,,,
20110316190000,217.467,418.129,0.0,,,,
20110316200000,217.063,417.855,0.0,,,,
20110316210000,216.464,416.816,0.0,,,,
20110316220000,215.76,414.895,0.0,,,,
20110316230000,215.071,413.556,2.0,,,,
20110317000000,214.281,411.396,2.0,,,,
20110317010000,213.359,408.846,1.5,,,,
20110317020000,212.394,406.399,1.5,,,,
20110317030000,211.379,403.577,0.5,,,,
20110317040000,210.36,400.702,0.5,,,,
20110317050000,209.348,397.615,0.0,,,,
20110317060000,208.181,393.831,0.0,,,,
20110317070000,206.42,386.282,0.0,,,,
20110317080000,204.707,380.495,0.0,,,,
20110317090000,203.178,375.965,0.0,,,,
20110317100000,201.872,372.448,0.0,,,,
20110317110000,200.774,369.58,0.0,,,,
20110317120000,199.904,367.445,0.0,,,,
20110317130000,199.13,365.461,1.0,,,,
20110317140000,198.45,363.675,0.0,,,,
20110317150000,197.729,361.9,0.0,,,,
20110317160000,197.026,360.03,0.0,,,,
20110317170000,196.384,358.429,,,,,
20110317180000,195.747,356.624,,,,,
20110317190000,195.302,355.858,,,,,
20110317200000,194.911,355.122,,,,,
20110317210000,194.42,354.145,,,,,
20110317220000,193.805,352.675,,,,,
20110317230000,193.164,351.048,,,,,
20110318000000,192.385,349.126,,,,,
20110318010000,191.571,347.049,,,,,
20110318020000,190.774,344.964,,,,,
20110318030000,189.988,342.992,,,,,
20110318040000,189.253,341.112,,,,,
20110318050000,188.518,339.234,,,,,
20110318060000,187.674,336.693,,,,,
20110318070000,186.49,332.217,,,,,
20110318080000,185.147,328.053,,,,,
20110318090000,183.655,323.859,,,,,
20110318100000,182.165,319.965,,,,,
20110318110000,180.86,316.655,,,,,
20110318120000,179.78,314.013,,,,,
20110318130000,178.9,311.943,,,,,
20110318140000,178.21,310.092,,,,,
20110318150000,177.354,307.483,,,,,
20110318160000,176.603,305.385,,,,,
20110318170000,175.903,303.628,,,,,
20110318180000,175.446,302.581,,,,,
20110318190000,175.164,302.519,,,,,
20110318200000,174.704,302.031,,,,,
20110318210000,174.222,301.22,,,,,
20110318220000,173.746,300.419,,,,,
20110318230000,173.226,299.293,,,,,
20110319000000,172.631,298.028,,,,,
20110319010000,171.956,296.446,,,,,
20110319020000,171.261,294.807,,,,,
20110319030000,170.573,293.394,,,,,
20110319040000,169.859,291.725,,,,,
20110319050000,169.117,289.871,,,,,
20110319060000,168.367,287.97,,,,,
20110319070000,167.369,284.517,,,,,
20110319080000,166.383,281.158,,,,,
20110319090000,165.367,278.388,,,,,
20110319100000,179.719,314.945,,,,,
20110319110000,168.084,282.77,,,,,
20110319120000,165.324,276.688,,,,,
20110319130000,163.553,273.079,,,,,
20110319140000,162.08,269.821,,,,,
20110319150000,160.815,267.126,,,,,
20110319160000,159.776,264.976,,,,,
20110319170000,158.877,263.16,,,,,
20110319180000,158.103,261.624,,,,,
20110319190000,157.667,260.948,,,,,
20110319200000,157.347,260.876,,,,,
20110319210000,157.018,260.467,,,,,
20110319220000,156.542,259.684,,,,,
20110319230000,156.082,258.731,,,,,
20110320000000,155.535,257.573,,,,,
20110320010000,154.965,256.456,,,,,
20110320020000,154.388,255.149,,,,,
20110320030000,153.776,253.809,,,,,
20110320040000,153.183,252.519,,,,,
20110320050000,152.587,251.136,,,,,
20110320060000,151.93,249.399,,,,,
20110320070000,150.924,246.069,,,,,
20110320080000,151.353,246.622,,,,,
20110320090000,148.949,240.633,,,,,
20110320100000,157.744,261.373,,,,,
20110320110000,165.669,278.628,,,,,
20110320120000,152.335,245.879,,,,,
20110320130000,159.494,263.724,,,,,
20110320140000,152.056,245.698,,,,,
20110320150000,149.635,240.84,,,,,
20110320160000,147.977,237.795,,,,,
20110320170000,146.742,235.685,,,,,
20110320180000,145.805,234.069,,,,,
20110320190000,145.161,233.117,,,,,
20110320200000,144.612,232.276,,,,,
20110320210000,144.089,231.449,,,,,
20110320220000,143.511,230.301,,,,,
20110320230000,142.999,229.427,,,,,
20110321000000,142.294,227.848,,,,,
20110321010000,141.6,226.178,,,,,
20110321020000,140.969,224.829,,,,,
20110321030000,140.328,223.439,,,,,
20110321040000,139.649,221.955,,,,,
20110321050000,139.03,220.65,,,,,
20110321060000,138.408,219.221,,,,,
20110321070000,137.017,215.61,,,,,
20110321080000,130.476,202.601,,,,,
20110321090000,124.191,189.647,,,,,
20110321100000,121.999,185.273,,,,,
20110321110000,122.238,185.681,,,,,
20110321120000,123.972,189.289,,,,,
20110321130000,124.968,191.223,,,,,
20110321140000,123.11,187.383,,,,,
20110321150000,119.361,180.099,,,,,
20110321160000,117.032,172.877,,,,,
20110321170000,117.679,174.161,,,,,
20110321180000,137.267,217.989,,,,,
20110321190000,123.82,188.289,,,,,
20110321200000,123.727,188.456,,,,,
20110321210000,123.581,188.486,,,,,
20110321220000,123.316,188.129,,,,,
20110321230000,122.989,187.555,,,,,
20110322000000,122.593,186.95,,,,,
20110322010000,122.205,186.203,,,,,
20110322020000,121.794,185.502,,,,,
20110322030000,121.358,184.623,,,,,
20110322040000,120.922,183.819,,,,,
20110322050000,119.648,181.053,,,,,
20110322060000,115.104,169.366,,,,,
20110322070000,115.327,169.712,,,,,
20110322080000,115.587,170.14,,,,,
20110322090000,115.716,170.22,,,,,
20110322100000,115.763,170.221,,,,,
20110322110000,115.662,169.964,,,,,
20110322120000,115.434,169.356,,,,,
20110322130000,115.212,168.826,,,,,
20110322140000,114.683,167.725,,,,,
20110322150000,114.051,166.542,,,,,
20110322160000,113.873,166.319,,,,,
20110322170000,113.696,165.973,,,,,
20110322180000,114.125,166.974,,,,,
20110322190000,113.128,165.038,,,,,
20110322200000,114.01,167.176,,,,,
20110322210000,111.891,162.929,,,,,
20110322220000,108.391,156.222,,,,,
20110322230000,107.041,153.612,,,,,
20110323000000,106.38,152.372,,,,,
20110323010000,105.241,150.297,,,,,
20110323020000,104.2,148.324,,,,,
20110323030000,104.58,148.951,,,,,
20110323040000,105.274,150.405,,,,,
20110323050000,105.774,151.454,,,,,
20110323060000,106.007,151.716,,,,,
20110323070000,106.037,151.678,,,,,
20110323080000,105.965,151.655,,,,,
20110323090000,105.872,151.344,,,,,
20110323100000,105.596,150.708,,,,,
20110323110000,105.282,150.118,,,,,
20110323120000,104.873,149.145,,,,,
20110323130000,104.374,148.101,,,,,
20110323140000,103.503,146.575,,,,,
20110323150000,103.284,146.242,,,,,
20110323160000,103.157,145.914,,,,,
20110323170000,103.142,145.876,,,,,
20110323180000,102.853,145.353,,,,,
20110323190000,102.591,144.964,,,,,
20110323200000,102.251,144.55,,,,,
20110323210000,101.883,143.976,,,,,
20110323220000,101.527,143.339,,,,,
20110323230000,101.139,142.753,,,,,
20110324000000,100.736,142.056,,,,,
20110324010000,100.345,141.379,,,,,
20110324020000,99.947,140.69,,,,,
20110324030000,99.579,140.001,,,,,
20110324040000,99.204,139.306,,,,,
20110324050000,98.826,138.624,,,,,
20110324060000,98.452,137.88,,,,,
20110324070000,98.073,136.996,,,,,
20110324080000,97.683,136.214,,,,,
20110324090000,97.298,135.173,,,,,
20110324100000,97.127,134.795,,,,,
20110324110000,96.908,134.446,,,,,
20110324120000,96.614,133.94,,,,,
20110324130000,96.318,133.475,,,,,
20110324140000,96.02,133.017,,,,,
20110324150000,95.735,132.377,,,,,
20110324160000,95.45,131.873,,,,,
20110324170000,95.19,131.409,,,,,
20110324180000,94.948,130.875,,,,,
20110324190000,94.699,130.517,,,,,
20110324200000,94.416,130.085,,,,,
20110324210000,94.145,129.733,,,,,
20110324220000,93.867,129.189,,,,,
20110324230000,93.55,128.677,,,,,
20110325000000,93.201,128.145,,,,,
20110325010000,92.879,127.627,,,,,
20110325020000,92.54,127.023,,,,,
20110325030000,92.201,126.494,,,,,
20110325040000,91.894,125.906,,,,,
20110325050000,91.564,125.312,,,,,
20110325060000,91.232,124.702,,,,,
20110325070000,90.899,123.911,,,,,
20110325080000,90.541,123.243,,,,,
20110325090000,90.063,122.145,,,,,
20110325100000,89.865,121.683,,,,,
20110325110000,90.956,123.611,,,,,
20110325120000,92.809,126.68,,,,,
20110325130000,90.966,123.151,,,,,
20110325140000,90.161,121.823,,,,,
20110325150000,89.551,120.824,,,,,
20110325160000,89.039,120.048,,,,,
20110325170000,88.852,119.688,,,,,
20110325180000,89.474,120.778,,,,,
20110325190000,90.441,123.059,,,,,
20110325200000,88.399,118.96,,,,,
20110325210000,86.766,116.398,,,,,
20110325220000,84.579,112.61,,,,,
20110325230000,84.25,111.995,,,,,
20110326000000,84.07,111.721,,,,,
20110326010000,84.141,111.986,,,,,
20110326020000,84.058,111.861,,,,,
20110326030000,82.413,109.086,,,,,
20110326040000,80.606,106.056,,,,,
20110326050000,79.891,104.803,,,,,
20110326060000,80.122,105.112,,,,,
20110326070000,80.629,105.927,,,,,
20110326080000,81.166,106.743,,,,,
20110326090000,81.659,107.482,,,,,
20110326100000,81.871,107.885,,,,,
20110326110000,81.95,108.002,,,,,
20110326120000,81.993,108.034,,,,,
20110326130000,81.954,108.026,,,,,
20110326140000,81.897,107.924,,,,,
20110326150000,81.812,107.721,,,,,
20110326160000,81.692,107.553,,,,,
20110326170000,81.506,107.246,,,,,
20110326180000,81.277,106.844,,,,,
20110326190000,81.099,106.61,,,,,
20110326200000,80.875,106.25,,,,,
20110326210000,80.678,105.964,,,,,
20110326220000,80.485,105.636,,,,,
20110326230000,80.279,105.283,,,,,
20110327000000,80.013,104.855,,,,,
20110327010000,79.778,104.464,,,,,
20110327020000,79.561,104.075,,,,,
20110327030000,79.39,103.774,,,,,
20110327040000,79.17,103.422,,,,,
20110327050000,78.939,103.011,,,,,
20110327060000,78.69,102.468,,,,,
20110327070000,78.393,101.83,,,,,
20110327080000,78.138,101.348,,,,,
20110327090000,77.92,101.022,,,,,
20110327100000,77.742,100.715,,,,,
20110327110000,77.601,100.529,,,,,
20110327120000,77.452,100.345,,,,,
20110327130000,77.308,100.02,,,,,
20110327140000,77.163,99.755,,,,,
20110327150000,76.98,99.447,,,,,
20110327160000,76.831,99.172,,,,,
20110327170000,76.686,98.928,,,,,
20110327180000,76.476,98.575,,,,,
20110327190000,76.295,98.285,,,,,
20110327200000,76.116,98.01,,,,,
20110327210000,75.915,97.685,,,,,
20110327220000,75.712,97.35,,,,,
20110327230000,75.515,96.988,,,,,
20110328000000,75.316,96.673,,,,,
20110328010000,75.141,96.341,,,,,
20110328020000,74.942,96.044,,,,,
20110328030000,74.78,95.738,,,,,
20110328040000,74.571,95.488,,,,,
20110328050000,74.361,95.114,,,,,
20110328060000,74.139,94.711,,,,,
20110328070000,73.957,94.296,,,,,
20110328080000,73.859,94.128,,,,,
20110328090000,73.731,93.853,,,,,
20110328100000,73.848,94.072,,,,,
20110328110000,73.579,93.599,,,,,
20110328120000,73.374,93.228,,,,,
20110328130000,73.233,92.969,,,,,
20110328140000,73.107,92.742,,,,,
20110328150000,72.998,92.528,,,,,
20110328160000,72.842,92.279,,,,,
20110328170000,72.677,91.998,,,,,
20110328180000,72.517,91.742,,,,,
20110328190000,72.323,91.48,,,,,
20110328200000,72.139,91.206,,,,,
20110328210000,71.968,90.924,,,,,
20110328220000,71.807,90.657,,,,,
20110328230000,71.634,90.357,,,,,
20110329000000,71.462,90.086,,,,,
20110329010000,71.288,89.792,,,,,
20110329020000,71.152,89.57,,,,,
20110329030000,70.978,89.292,,,,,
20110329040000,70.789,89.025,,,,,
20110329050000,70.624,88.773,,,,,
20110329060000,71.775,90.849,,,,,
20110329070000,70.329,88.184,,,,,
20110329080000,70.267,88.014,,,,,
20110329090000,70.88,89.011,,,,,
20110329100000,70.37,88.048,,,,,
20110329110000,70.981,88.955,,,,,
20110329120000,70.46,88.057,,,,,
20110329130000,70.202,87.679,,,,,
20110329140000,70.041,87.441,,,,,
20110329150000,69.815,87.088,,,,,
20110329160000,69.845,87.138,,,,,
20110329170000,70.276,87.93,,,,,
20110329180000,69.756,87.001,,,,,
20110329190000,69.7,87.067,,,,,
20110329200000,69.271,86.333,,,,,
20110329210000,68.984,85.92,,,,,
20110329220000,68.8,85.631,,,,,
20110329230000,68.65,85.391,,,,,
20110330000000,68.524,85.171,,,,,
20110330010000,68.445,85.006,,,,,
20110330020000,68.257,84.672,,,,,
20110330030000,68.045,84.332,,,,,
20110330040000,67.87,84.035,,,,,
20110330050000,67.712,83.802,,,,,
20110330060000,67.544,83.506,,,,,
20110330070000,67.405,83.229,,,,,
20110330080000,67.408,83.19,,,,,
20110330090000,67.399,83.149,,,,,
20110330100000,67.294,82.915,,,,,
20110330110000,67.954,84.088,,,,,
20110330120000,67.439,83.096,,,,,
20110330130000,67.161,82.567,,,,,
20110330140000,66.999,82.329,,,,,
20110330150000,66.813,82.079,,,,,
20110330160000,66.623,81.814,,,,,
20110330170000,66.227,81.192,,,,,
20110330180000,66.148,81.126,,,,,
20110330190000,66.073,81.048,,,,,
20110330200000,65.464,80.147,,,,,
20110330210000,63.962,77.805,,,,,
20110330220000,63.517,77.137,,,,,
20110330230000,63.251,76.714,,,,,
20110331000000,62.864,76.102,,,,,
20110331010000,62.985,76.272,,,,,
20110331020000,63.181,76.553,,,,,
20110331030000,63.302,76.721,,,,,
20110331040000,63.361,76.814,,,,,
20110331050000,63.365,76.826,,,,,
20110331060000,63.303,76.706,,,,,
20110331070000,63.294,76.689,,,,,
20110331080000,63.288,76.664,,,,,
20110331090000,62.911,76.025,,,,,
20110331100000,62.866,75.942,,,,,
20110331110000,62.985,76.113,,,,,
20110331120000,63.016,76.134,,,,,
20110331130000,62.668,75.579,,,,,
20110331140000,62.822,75.872,,,,,
20110331150000,62.188,74.844,,,,,
20110331160000,62.173,74.772,,,,,
20110331170000,62.437,75.387,,,,,
20110331180000,62.183,74.783,,,,,
20110331190000,62.115,74.746,,,,,
20110331200000,62.086,74.669,,,,,
20110331210000,61.986,74.504,,,,,
20110331220000,61.849,74.274,,,,,
20110331230000,61.72,74.106,,,,,
20110401000000,61.588,73.898,,,,,
